Location: Hepcat Sky Observatory
(29.9800°N, 95.6500°W)
Time: 09:25:45
(UTC-06:00)

Cosmos 2366 rocket - Visible Passes

Search period start: 09 December 2016 00:00
Search period end: 19 December 2016 00:00
Orbit: 956 x 996 km, 82.9° (Epoch: 08 December)

Date Brightness Start Highest point End Pass type
(mag) Time Alt. Az. Time Alt. Az. Time Alt. Az.
09 Dec 5.4 05:42:38 10° SSE 05:48:24 40° E 05:54:15 10° NNE visible
09 Dec 5.7 18:30:36 10° NNW 18:36:13 35° W 18:41:47 10° SSW visible
10 Dec 4.2 06:07:37 10° S 06:13:53 80° E 06:20:15 10° N visible
10 Dec 6.7 18:57:35 10° NW 19:01:31 17° W 19:05:25 10° WSW visible
11 Dec 6.6 04:50:51 10° ESE 04:54:44 17° E 04:58:37 10° NE visible
11 Dec 4.2 06:33:26 10° SSW 06:39:32 53° W 06:45:43 10° N visible
11 Dec 4.2 17:36:01 10° N 17:42:21 82° W 17:48:34 10° S visible
12 Dec 5.6 05:14:27 10° SSE 05:20:02 34° E 05:25:39 10° NNE visible
12 Dec 5.5 18:02:00 10° NNW 18:07:50 41° W 18:13:36 10° SSW visible
13 Dec 4.4 05:39:15 10° S 05:45:28 69° E 05:51:46 10° NNE visible
13 Dec 6.6 18:28:42 10° NW 18:33:10 21° W 18:37:35 10° SW visible
14 Dec 6.8 04:23:13 10° ESE 04:26:23 14° E 04:29:34 10° NE visible
14 Dec 4.0 06:04:52 10° SSW 06:11:05 62° W 06:17:22 10° N visible
15 Dec 5.8 04:46:21 10° SE 04:51:39 29° E 04:57:00 10° NNE visible
15 Dec 4.7 06:31:20 10° SW 06:36:50 32° WNW 06:42:25 10° NNW visible
16 Dec 4.6 05:10:55 10° S 05:17:04 58° E 05:23:16 10° NNE visible
16 Dec 6.4 17:59:54 10° NW 18:04:48 24° W 18:09:39 10° SW visible
17 Dec 6.8 03:55:58 10° ESE 03:58:04 12° E 04:00:11 10° ENE visible
17 Dec 3.9 05:36:21 10° S 05:42:38 73° W 05:48:59 10° N visible
17 Dec 7.0 18:28:12 10° WNW 18:30:00 11° W 18:31:50 10° W visible
18 Dec 6.0 04:18:19 10° SE 04:23:17 25° E 04:28:17 10° NE visible
18 Dec 4.5 06:02:35 10° SW 06:08:21 37° W 06:14:11 10° NNW visible
